Location: Arundel
(45.9667°N, 74.6189°W)
Time: 13:47:52
(UTC+00:00)

Envisat - Visible Passes

Search period start: 01 December 2022 00:00
Search period end: 11 December 2022 00:00
Orbit: 763 x 765 km, 98.2° (Epoch: 30 November)

Date Brightness Start Highest point End Pass type
(mag) Time Alt. Az. Time Alt. Az. Time Alt. Az.
01 Dec 5.1 08:57:27 10° NNE 08:58:57 19° NNE 08:58:57 19° NNE visible
01 Dec 4.6 10:37:14 10° NNW 10:39:07 18° NNW 10:39:07 18° NNW visible
01 Dec 6.1 21:57:10 10° WSW 21:58:59 12° W 22:00:49 10° WNW visible
02 Dec 5.8 08:21:00 10° NE 08:21:20 12° NE 08:21:20 12° NE visible
02 Dec 4.5 09:59:36 10° N 10:01:30 22° N 10:01:30 22° N visible
03 Dec 4.9 09:22:24 10° NNE 09:23:54 20° NNE 09:23:54 20° NNE visible
03 Dec 4.9 11:03:13 10° NNW 11:04:04 12° NW 11:04:04 12° NW visible
04 Dec 5.5 08:45:36 10° NNE 08:46:19 14° NNE 08:46:19 14° NNE visible
04 Dec 4.7 10:25:01 10° N 10:26:29 17° NNW 10:26:29 17° NNW visible
04 Dec 5.9 21:43:57 10° SW 21:46:53 15° W 21:49:49 10° NW visible
05 Dec 4.8 09:47:33 10° N 09:48:54 18° N 09:48:54 18° N visible
06 Dec 5.3 09:10:28 10° NNE 09:11:19 15° NNE 09:11:19 15° NNE visible
06 Dec 4.9 10:50:45 10° NNW 10:51:29 13° NNW 10:51:29 13° NNW visible
07 Dec 4.9 10:12:51 10° N 10:13:55 15° N 10:13:55 15° N visible
08 Dec 5.1 09:35:31 10° N 09:36:21 15° N 09:36:21 15° N visible
09 Dec 5.6 08:58:34 10° NNE 08:58:47 11° NNE 08:58:47 11° NNE visible
09 Dec 5.0 10:38:25 10° NNW 10:38:58 12° NNW 10:38:58 12° NNW visible
09 Dec 6.2 21:58:38 10° WSW 22:00:08 11° W 22:01:40 10° WNW visible
10 Dec 5.1 10:00:45 10° N 10:01:25 14° N 10:01:25 14° N visible
